Morrisville, NC

3:34 PM EST on February 24, 2017 (GMT -0500)
Raleigh-Durham International

Weather History for KRDU - August, 2014

Change the Weather History Date:

Friday, August 1, 2014

  Actual Average Record
Temperature  
Mean Temperature 71 °F 80 °F  
Max Temperature 76 °F 90 °F 104 °F (1999)
Min Temperature 65 °F 70 °F 56 °F (1997)
Degree Days  
Heating Degree Days 0 0  
Month to date heating degree days 0 0  
Since 1 June heating degree days 0 4  
Since 1 July heating degree days 0 0  
Cooling Degree Days 6 15  
Month to date cooling degree days 6 15  
Year to date cooling degree days 1019 1037  
Since 1 June cooling degree days 806 828  
Growing Degree Days 20 (Base 50)    
Moisture  
Dew Point 64 °F    
Average Humidity 83    
Maximum Humidity 97    
Minimum Humidity 68    
Precipitation  
Precipitation 0.71 in 0.14 in 3.30 in (1891)
Month to date precipitation 0.71 0.14  
Year to date precipitation 32.25 25.42  
Sea Level Pressure  
Sea Level Pressure 30.11 in    
Wind  
Wind Speed 7 mph (NE)    
Max Wind Speed 20 mph    
Max Gust Speed 24 mph    
Visibility 5 miles    
Events Rain    
T = Trace of Precipitation, MM = Missing Value Source: NWS Daily Summary

Daily Weather History Graph

Daily Weather History Graph

Search for Another Location

Airport or City:

Trip Planner

Search our weather history database for the weather conditions in past years. The results will help you decide how hot, cold, wet, or windy it might be!

Date:

Astronomy

Aug. 01, 2014 Rise Set
Actual Time 6:22 AM EDT 8:19 PM EDT
Civil Twilight 5:54 AM EDT 8:47 PM EDT
Nautical Twilight 5:20 AM EDT 9:21 PM EDT
Astronomical Twilight 4:43 AM EDT 9:58 PM EDT
Moon 11:32 AM EDT (8/1) 11:16 PM EDT (8/1)
Length of Visible Light 14h 53m
Length of Day
13h 56m
Waxing Crescent, 27% of the Moon is Illuminated
Aug 1
Waxing Crescent
Aug 3
First Quarter
Aug 10
Full
Aug 17
Last Quarter
Aug 25
New

Hourly Weather History & Observations

Time (EDT) Temp. Dew Point Humidity Pressure Visibility Wind Dir Wind Speed Gust Speed Precip Events Conditions
12:51 AM 70.0 °F 66.9 °F 90% 30.16 in 5.0 mi Calm Calm - 0.02 in Rain Light Rain
1:51 AM 70.0 °F 66.9 °F 90% 30.13 in 6.0 mi NE 3.5 mph - 0.00 in   Overcast
2:51 AM 70.0 °F 66.9 °F 90% 30.12 in 3.0 mi NE 4.6 mph - N/A   Overcast
3:51 AM 70.0 °F 68.0 °F 93% 30.11 in 6.0 mi Calm Calm - 0.00 in   Overcast
4:51 AM 70.0 °F 66.9 °F 90% 30.09 in 6.0 mi NE 5.8 mph - N/A   Overcast
5:51 AM 70.0 °F 66.9 °F 90% 30.11 in 6.0 mi Calm Calm - 0.00 in Rain Light Rain
6:51 AM 70.0 °F 66.9 °F 90% 30.12 in 5.0 mi NE 8.1 mph - 0.00 in   Overcast
7:51 AM 69.8 °F 66.2 °F 88% 30.13 in 6.0 mi NE 8.1 mph - N/A   Overcast
8:51 AM 72.0 °F 68.0 °F 87% 30.11 in 7.0 mi NE 9.2 mph - N/A   Mostly Cloudy
9:51 AM 73.9 °F 68.0 °F 82% 30.11 in 9.0 mi ENE 8.1 mph - N/A   Overcast
10:51 AM 73.4 °F 66.2 °F 78% 30.13 in 10.0 mi ENE 9.2 mph - N/A   Overcast
11:22 AM 73.4 °F 66.2 °F 78% 30.14 in 10.0 mi ENE 9.2 mph - N/A   Overcast
11:51 AM 75.0 °F 66.9 °F 76% 30.12 in 10.0 mi ENE 9.2 mph - N/A   Overcast
12:51 PM 75.0 °F 64.0 °F 69% 30.12 in 10.0 mi ENE 8.1 mph - N/A   Overcast
1:51 PM 71.1 °F 61.0 °F 70% 30.11 in 10.0 mi East 18.4 mph 24.2 mph N/A   Overcast
2:51 PM 70.0 °F 64.0 °F 81% 30.09 in 10.0 mi NE 10.4 mph - 0.00 in   Overcast
3:01 PM 69.8 °F 62.6 °F 78% 30.10 in 2.0 mi ENE 9.2 mph - 0.00 in Rain Rain
3:11 PM 68.0 °F 62.6 °F 83% 30.10 in 1.5 mi NE 9.2 mph - 0.10 in Rain Heavy Rain
3:23 PM 66.2 °F 62.6 °F 88% 30.09 in 2.0 mi NE 9.2 mph - 0.20 in Rain Rain
3:51 PM 66.9 °F 64.0 °F 90% 30.08 in 2.0 mi NE 15.0 mph - 0.31 in Rain Heavy Rain
4:05 PM 66.2 °F 64.4 °F 94% 30.09 in 2.0 mi ENE 9.2 mph - N/A Rain Light Rain
4:19 PM 66.2 °F 62.6 °F 88% 30.10 in 2.0 mi NE 8.1 mph 20.7 mph 0.12 in Rain Rain
4:31 PM 66.2 °F 62.6 °F 88% 30.10 in 1.0 mi ENE 8.1 mph 24.2 mph 0.16 in Rain Heavy Rain
4:51 PM 64.4 °F 62.6 °F 94% 30.10 in 1.0 mi Calm Calm - N/A Rain Rain
5:22 PM 64.4 °F 60.8 °F 88% 30.11 in 2.0 mi NNE 5.8 mph - 0.10 in Rain Light Rain
5:51 PM 64.9 °F 61.0 °F 87% 30.09 in 2.0 mi NE 12.7 mph - 0.12 in Rain Light Rain
6:51 PM 64.9 °F 62.1 °F 90% 30.09 in 2.0 mi NE 8.1 mph - 0.02 in Rain Light Rain
7:51 PM 64.9 °F 62.1 °F 90% 30.09 in 2.0 mi NE 8.1 mph - 0.00 in   Light Drizzle
8:51 PM 64.9 °F 62.1 °F 90% 30.10 in 5.0 mi NNE 5.8 mph - 0.00 in   Light Drizzle
9:51 PM 64.9 °F 62.1 °F 90% 30.11 in 6.0 mi NE 8.1 mph - 0.00 in   Light Drizzle
10:51 PM 64.9 °F 63.0 °F 93% 30.11 in 6.0 mi NNE 5.8 mph - 0.00 in   Light Drizzle
11:03 PM 64.4 °F 62.6 °F 94% 30.11 in 6.0 mi NNE 8.1 mph - 0.00 in   Light Drizzle
11:51 PM 64.4 °F 62.6 °F 94% 30.12 in 8.0 mi NNE 4.6 mph - N/A   Light Drizzle